Hourly Weather Działoszyce

Today, 18 May, Tuesday

Time Temperature Precipitation Wind Pressure Humidity
00:00 +9°C° 1.1 mm 5 mps 732 mmHg 95%
01:00 +9°C° 1.1 mm 5 mps 732 mmHg 94%
02:00 +9°C° 0.7 mm 5 mps 732 mmHg 94%
03:00 +8°C° 0.7 mm 5 mps 733 mmHg 94%
04:00 +8°C° 0.7 mm 5 mps 733 mmHg 94%
05:00 +8°C° 0.7 mm 5 mps 733 mmHg 94%
06:00 +8°C° 0.7 mm 5 mps 734 mmHg 94%
07:00 +8°C° 0.7 mm 5 mps 734 mmHg 94%
08:00 +8°C° 0.3 mm 5 mps 734 mmHg 94%
09:00 +9°C° 0.3 mm 6 mps 735 mmHg 93%
10:00 +9°C° 0.3 mm 6 mps 735 mmHg 92%
11:00 +10°C° 0.2 mm 6 mps 735 mmHg 88%
12:00 +11°C° 0.2 mm 6 mps 735 mmHg 83%
13:00 +14°C° 0.2 mm 7 mps 735 mmHg 78%
14:00 +14°C° 0.2 mm 6 mps 735 mmHg 78%
15:00 +14°C° 0.2 mm 6 mps 735 mmHg 78%
16:00 +14°C° 0.2 mm 6 mps 735 mmHg 77%
17:00 +13°C° 0.1 mm 5 mps 735 mmHg 80%
18:00 +12°C° 0.1 mm 5 mps 736 mmHg 83%
19:00 +11°C° 0.1 mm 4 mps 736 mmHg 86%
20:00 +10°C° 0 mm 4 mps 736 mmHg 88%
21:00 +10°C° 0 mm 3 mps 736 mmHg 91%
22:00 +9°C° 0 mm 3 mps 736 mmHg 93%
23:00 +9°C° 0 mm 3 mps 737 mmHg 93%

Tomorrow, 19 May, Wednesday

Time Temperature Precipitation Wind Pressure Humidity
00:00 +7°C° 0 mm 4 mps 737 mmHg 94%
01:00 +7°C° 0 mm 4 mps 737 mmHg 94%
02:00 +6°C° 0 mm 4 mps 737 mmHg 95%
03:00 +6°C° 0 mm 4 mps 737 mmHg 95%
04:00 +7°C° 0 mm 3 mps 737 mmHg 96%
05:00 +7°C° 0 mm 4 mps 738 mmHg 92%
06:00 +8°C° 0 mm 4 mps 738 mmHg 88%
07:00 +10°C° 0 mm 5 mps 738 mmHg 85%
08:00 +12°C° 0.1 mm 5 mps 738 mmHg 81%
09:00 +12°C° 0.1 mm 4 mps 738 mmHg 77%
10:00 +13°C° 0.1 mm 4 mps 738 mmHg 73%
11:00 +13°C° 0.2 mm 4 mps 738 mmHg 74%
12:00 +13°C° 0.2 mm 4 mps 738 mmHg 75%
13:00 +13°C° 0.2 mm 4 mps 738 mmHg 76%
14:00 +13°C° 0.1 mm 4 mps 738 mmHg 75%
15:00 +13°C° 0.1 mm 4 mps 738 mmHg 74%
16:00 +14°C° 0.1 mm 4 mps 738 mmHg 73%
17:00 +13°C° 0.3 mm 3 mps 738 mmHg 78%
18:00 +12°C° 0.3 mm 3 mps 738 mmHg 83%
19:00 +11°C° 0.3 mm 3 mps 738 mmHg 87%
20:00 +10°C° 0.1 mm 3 mps 739 mmHg 89%
21:00 +10°C° 0.1 mm 3 mps 739 mmHg 91%
22:00 +9°C° 0.1 mm 3 mps 739 mmHg 93%
23:00 +9°C° 0.2 mm 3 mps 739 mmHg 94%

Day after tomorrow, 20 May, Thursday

Time Temperature Precipitation Wind Pressure Humidity
00:00 +9°C° 0.2 mm 3 mps 739 mmHg 96%
01:00 +7°C° 0.2 mm 4 mps 739 mmHg 97%
02:00 +7°C° 0.5 mm 4 mps 739 mmHg 97%
03:00 +7°C° 0.5 mm 4 mps 739 mmHg 97%
04:00 +7°C° 0.5 mm 4 mps 739 mmHg 97%
05:00 +7°C° 0.6 mm 4 mps 739 mmHg 95%
06:00 +7°C° 0.6 mm 4 mps 740 mmHg 93%
07:00 +7°C° 0.6 mm 4 mps 740 mmHg 91%
08:00 +8°C° 0.1 mm 4 mps 740 mmHg 88%
09:00 +9°C° 0.1 mm 5 mps 741 mmHg 85%
10:00 +9°C° 0.1 mm 5 mps 741 mmHg 82%
11:00 +10°C° 0.1 mm 5 mps 741 mmHg 74%
12:00 +12°C° 0.1 mm 5 mps 741 mmHg 66%
13:00 +13°C° 0.1 mm 6 mps 741 mmHg 59%
14:00 +13°C° 0 mm 5 mps 741 mmHg 61%
15:00 +14°C° 0 mm 5 mps 741 mmHg 64%
16:00 +14°C° 0 mm 4 mps 741 mmHg 67%
17:00 +13°C° 0.1 mm 4 mps 741 mmHg 71%
18:00 +12°C° 0.1 mm 4 mps 741 mmHg 76%
19:00 +11°C° 0.1 mm 4 mps 741 mmHg 81%
20:00 +10°C° 0 mm 4 mps 742 mmHg 84%
21:00 +10°C° 0 mm 4 mps 742 mmHg 87%
22:00 +8°C° 0 mm 4 mps 742 mmHg 90%
23:00 +7°C° 0 mm 4 mps 743 mmHg 92%

21 May, Friday

Time Temperature Precipitation Wind Pressure Humidity
00:00 +7°C° 0 mm 4 mps 743 mmHg 93%
01:00 +6°C° 0 mm 4 mps 743 mmHg 95%
02:00 +5°C° 0 mm 3 mps 743 mmHg 95%
03:00 +5°C° 0 mm 3 mps 744 mmHg 95%
04:00 +4°C° 0 mm 3 mps 744 mmHg 95%
05:00 +7°C° 0 mm 3 mps 744 mmHg 89%
06:00 +8°C° 0 mm 3 mps 744 mmHg 83%
07:00 +10°C° 0 mm 4 mps 744 mmHg 77%
08:00 +11°C° 0.1 mm 4 mps 744 mmHg 72%
09:00 +12°C° 0.1 mm 4 mps 744 mmHg 67%
10:00 +13°C° 0.1 mm 4 mps 744 mmHg 63%
11:00 +13°C° 0.1 mm 4 mps 744 mmHg 62%
12:00 +14°C° 0.1 mm 4 mps 743 mmHg 61%
13:00 +14°C° 0.1 mm 4 mps 743 mmHg 61%
14:00 +14°C° 0 mm 3 mps 743 mmHg 60%
15:00 +14°C° 0 mm 3 mps 742 mmHg 60%
16:00 +16°C° 0 mm 2 mps 742 mmHg 60%
17:00 +15°C° 0 mm 2 mps 742 mmHg 65%
18:00 +13°C° 0 mm 2 mps 741 mmHg 69%
19:00 +12°C° 0 mm 2 mps 741 mmHg 74%
20:00 +12°C° 0 mm 2 mps 741 mmHg 76%
21:00 +10°C° 0 mm 2 mps 741 mmHg 78%
22:00 +9°C° 0 mm 3 mps 741 mmHg 80%
23:00 +9°C° 0 mm 2 mps 740 mmHg 80%

22 May, Saturday

Time Temperature Precipitation Wind Pressure Humidity
00:00 +9°C° 0 mm 2 mps 740 mmHg 80%
01:00 +8°C° 0 mm 2 mps 740 mmHg 80%
02:00 +8°C° 0 mm 2 mps 739 mmHg 81%
03:00 +8°C° 0 mm 2 mps 739 mmHg 82%
04:00 +7°C° 0 mm 2 mps 739 mmHg 83%
05:00 +9°C° 0 mm 2 mps 739 mmHg 79%
06:00 +11°C° 0 mm 3 mps 738 mmHg 76%
07:00 +12°C° 0 mm 3 mps 738 mmHg 72%
08:00 +14°C° 0 mm 3 mps 738 mmHg 67%
09:00 +17°C° 0 mm 3 mps 738 mmHg 62%
10:00 +18°C° 0 mm 3 mps 738 mmHg 57%
11:00 +19°C° 0 mm 3 mps 738 mmHg 55%
12:00 +19°C° 0 mm 2 mps 738 mmHg 53%
13:00 +20°C° 0 mm 2 mps 738 mmHg 51%
14:00 +19°C° 0.4 mm 2 mps 738 mmHg 60%
15:00 +17°C° 0.4 mm 2 mps 737 mmHg 69%
16:00 +16°C° 0.4 mm 3 mps 737 mmHg 77%
17:00 +14°C° 0.6 mm 3 mps 737 mmHg 82%
18:00 +13°C° 0.6 mm 3 mps 737 mmHg 88%
19:00 +11°C° 0.6 mm 3 mps 737 mmHg 93%
20:00 +11°C° 0.5 mm 3 mps 738 mmHg 94%
21:00 +11°C° 0.5 mm 3 mps 738 mmHg 95%
22:00 +10°C° 0.5 mm 3 mps 738 mmHg 96%
23:00 +10°C° 1.1 mm 3 mps 738 mmHg 96%

23 May, Sunday

Time Temperature Precipitation Wind Pressure Humidity
00:00 +9°C° 1.1 mm 3 mps 738 mmHg 95%
01:00 +9°C° 1.1 mm 3 mps 738 mmHg 95%
02:00 +9°C° 0.1 mm 3 mps 738 mmHg 94%
03:00 +8°C° 0.1 mm 2 mps 738 mmHg 94%
04:00 +8°C° 0.1 mm 2 mps 738 mmHg 94%
05:00 +9°C° 0 mm 2 mps 739 mmHg 89%
06:00 +10°C° 0 mm 2 mps 739 mmHg 84%
07:00 +11°C° 0 mm 3 mps 739 mmHg 80%
08:00 +13°C° 0 mm 2 mps 739 mmHg 73%
09:00 +14°C° 0 mm 2 mps 739 mmHg 67%
10:00 +16°C° 0 mm 2 mps 739 mmHg 61%
11:00 +16°C° 0 mm 2 mps 739 mmHg 57%
12:00 +18°C° 0 mm 1 mps 739 mmHg 54%
13:00 +19°C° 0 mm 1 mps 739 mmHg 51%
14:00 +19°C° 0 mm 1 mps 739 mmHg 55%
15:00 +18°C° 0 mm 1 mps 739 mmHg 59%
16:00 +17°C° 0 mm 2 mps 739 mmHg 63%
17:00 +15°C° 0.1 mm 2 mps 739 mmHg 69%
18:00 +14°C° 0.1 mm 2 mps 740 mmHg 75%
19:00 +12°C° 0.1 mm 3 mps 740 mmHg 81%
20:00 +11°C° 0 mm 3 mps 740 mmHg 81%
21:00 +12°C° 0 mm 2 mps 740 mmHg 82%
22:00 +10°C° 0 mm 2 mps 741 mmHg 82%
23:00 +10°C° 0 mm 2 mps 741 mmHg 85%
Show more